Back to catalog

DMSP 5D-2 F14 DEB

AlivePO
NORAD 62942·DEBRIS·🇺🇸 United States

Launched Apr 4, 1997 from Vandenberg Space Force Base

Loading…

Next Passes (next 24 hours)

TLE

FreshSource: Space-Track

Epoch: Sep 14, 2026, 02:51 UTC

1 62942U 97012N   26257.11892717  .00008741  00000-0  35792-2 0  9998
2 62942  99.3318 323.4678 0122126  41.6997 319.3410 14.23441190520378

Track DMSP 5D-2 F14 DEB in real time with AllMySat

Download on the App Store